Regional Weather Roundup
Issued by NWS Newport/Morehead, NC

Current Version | Previous Version | Graphics & Text | Print | Product List | Glossary Off
Versions: 1 2 3 4 5 6 7 8 9 10 11 12 13 14 15 16 17 18 19 20 21 22 23 24 25 26 27 28 29 30 31 32 33 34 35 36 37 38 39 40 41 42 43 44 45 46 47 48 49 50

000
ASUS42 KMHX 051513
RWRMHX
WEATHER ROUNDUP FOR EASTERN NORTH CAROLINA
NATIONAL WEATHER SERVICE NEWPORT/MOREHEAD CITY NC
1100 AM EDT SUN JUL 05 2015

NOTE: "FAIR" INDICATES FEW OR NO CLOUDS BELOW 12,000 FEET
WITH NO SIGNIFICANT WEATHER AND/OR OBSTRUCTIONS TO VISIBILITY

NCZ015>017-031-032-045>047-102-103-051600-
NORTH COAST

CITY           SKY/WX    TMP DP  RH WIND       PRES   REMARKS
EDENTON          N/A     81  74  79 S5        30.13S
ELIZABETH CITY MOSUNNY   83  74  74 NE3       30.13R
KITTY HAWK     CLOUDY    82  74  76 W6        30.13R
MANTEO         CLOUDY    80  73  80 W5        30.14S

$$

NCZ045>047-081-094-103-104-051600-
CENTRAL COAST

CITY           SKY/WX    TMP DP  RH WIND       PRES   REMARKS
FRISCO         PTSUNNY   82  72  71 SW10G18   30.15S
SWANQUARTER      N/A     84 N/A N/A SW5       30.12R

$$

NCZ095-097-098-100-101-051600-
SOUTHERN COAST

CITY           SKY/WX    TMP DP  RH WIND       PRES   REMARKS
BEAUFORT       PTSUNNY   84  73  69 SW15      30.15S
CEDAR ISLAND     N/A     88 N/A N/A S6G13     30.18S
JACKSONVILLE   MOSUNNY   83  69  62 S8        30.14F
PINEY ISLAND   PTSUNNY  N/A N/A N/A SW9       30.15R
WILMINGTON     MOSUNNY   84  69  60 S8        30.15S


$$

NCZ011>013-027>030-043-044-078>080-089-090>093-098-051600-
COASTAL PLAIN

CITY           SKY/WX    TMP DP  RH WIND       PRES   REMARKS
AHOSKIE        SUNNY    N/A N/A N/A CALM      30.12S
CLINTON        MOSUNNY   83  73  72 CALM      30.14S
ELIZABETHTOWN  SUNNY     82  69  63 CALM      30.14S
GOLDSBORO      PTSUNNY   84  73  68 SW5       30.11S
GREENVILLE     MOSUNNY   82  73  74 SW5       30.14S
HAVELOCK       PTSUNNY   84  69  60 SW10      30.15F
KENANSVILLE    PTSUNNY   81  70  68 CALM      30.15S
KINSTON        PTSUNNY   84  70  61 S5        30.14S
NEW BERN       PTSUNNY   85  72  65 S8        30.15F
RICHLANDS      MOSUNNY   86  68  54 S6        30.14F
ROCKY MOUNT    MOSUNNY   86  74  67 S5        30.12S
WASHINGTON     MOSUNNY   82  73  72 S6        30.14S
WHITEVILLE     SUNNY     83  69  64 SW8       30.14F

$$

AMZ130-135-150-152-154-156-158-170-250-252-270-ANZ085-086-088-633-658-670-051600-
MARINE OBSERVATIONS

STATION/POSITION TIME  TEMP    WIND        PRES    WAVE   SWELL
                       AIR SEA DIR/SP/G            HT/PER HT/PER
                 (UTC) (F)     (DEG/KT/KT) (MB)    (FT/S) (FT/S)
CHESAPEAKE LIGHT 1500   76      60/  9/ 10 1021.3
64 E VA BEACH    1450   76 77   50/  8/  8 1020.3    4/ 7   3/ 7
DUCK             1400   79 75  260/  6/  7   N/A
2 E DUCK         1411      78                N/A     2/14
OREGON INLET     1400   79 79  230/  9/ 10 1020.2
13E OREGON INLT  1400      77                N/A     3/ 6
HATTERAS CG      1400   81 79  220/  8/ 13 1020.4
DIAMOND BUOY     1450   80 81  240/ 16/ 17 1020.7    4/ 6   2/ 9
CAPE LOOKOUT     1500   81     220/  8/ 11 1020.8
BEAUFORT LAB     1400   82 80  230/  4/  9 1020.3
30 SE NEW RVR IN NOT AVBL
27 SE WRIGHTSVLE 1400      80  250/ 10/ 12   N/A
5 SE WRIGHTSVLE  1408   79 78  220/  6/ 10 1021.2
225 S CAPE HAT   1450   78 80  220/ 16/ 19 1023.8    4/ 5   3/10
41 SE CHARLESTON 1450   81 82  230/ 10/ 12 1020.9    3/ 9   3/ 9

$$


USA.gov is the U.S. government's official web portal to all federal, state and local government web resources and services.